{"data":{"norad_id":52785,"epoch":"2026-09-20T21:36:00.864000Z","epoch_age_seconds":97082,"freshness":"FRESH","line1":"1 52785U 22058A   26263.90001000  .00000731  00000+0  12014-3 0  9994","line2":"2 52785  49.9929 120.3653 0021802 268.2856  91.5584 14.81601991234125","mean_motion":14.81601991,"eccentricity":0.0021802,"inclination_deg":49.9929,"raan_deg":120.3653,"arg_perigee_deg":268.2856,"mean_anomaly_deg":91.5584,"bstar":0.00012014,"rev_number":23412,"period_min":97.192094013594,"perigee_km":609.0053325061,"apogee_km":639.53863664244,"semimajor_km":7002.4089845743,"source":"CELESTRAK","updated_at":"2026-09-21T09:00:08.719503Z"}}